Location: Azul
(36.7830°S, 59.8500°W)
Time: 02:32:43
(UTC-03:00)

ISS - Pass Details

Date: 20 October 2020
Orbit: 417 x 420 km, 51.6° (Epoch: 28 October)

Event Time Altitude Azimuth Distance (km) Brightness Sun altitude
Rises 20:26:28 0° 273° (W) 2,383 1.3 -13.2°
Reaches altitude 10° 20:29:02 10° 253° (WSW) 1,523 0.5 -13.6°
Maximum altitude 20:31:29 18° 207° (SSW) 1,122 -0.9 -14.1°
Drops below altitude 10° 20:33:57 10° 161° (SSE) 1,531 -0.8 -14.5°
Sets 20:36:33 0° 141° (SE) 2,401 0.0 -15.0°
